sat.trackr.live / text

‹ back to catalog

STARLINK-35055

NORAD 65524 · 2025-200E

PAYLOAD ACTIVE UNKNOWN

§ Identity

Operator
Country
US
Launch date
2025-09-06
Launch site
AFWTR
Launch vehicle
Mass (kg)
RCS (m²)

Purposes: comms

External: N2YO · Heavens-Above · Gunter

§ Orbital elements

Epoch: 2026-05-25T04:49:25.669920Z

Period
95.64 min
Inclination
97.4462°
Eccentricity
0.0002373
Mean motion
15.05655648 rev/d
Perigee alt
547.8 km
Apogee alt
551.1 km
Semi-major
6,927.6 km
B*
2.7828e-4
RAAN
214.8439°
Arg perigee
142.9424°
Mean anomaly
217.1968°
Rev number
4,064

§ Raw data

STARLINK-350551 65524U 25200E   26145.20099155  .00003960  00000+0  27828-3 0  99972 65524  97.4462 214.8439 0002373 142.9424 217.1968 15.05655648 40641

JSON: /api/v1/satellites/65524 · /tle

For live sub-satellite position, see the globe view (requires WebGL).

§ Visibility from observer

Set your observer location to see the next 7 days of passes ≥ 10°. The values pass through the URL so the page stays shareable.

No JS? Fill the form by hand. The geolocation button needs JavaScript.